When you browse on this site, cookies collect data to enhance your experience and personalize the content and advertising you see.
Visit our Privacy Policy to learn more. By continuing to use the site, you agree to this use of cookies and data.
  • In Czech Republic
  • List of Countries
  • For 7 days
  • Water Temperature
  • Weather Map
  • Weather Widgets
  • user-avatar
    Login

    Hourly Weather Hannover

    Today, 20 October, Sunday

    Time Temperature Precipitation Wind Pressure Humidity
    00:00 +13°C° 0.1 mm 2 mps 751 mmHg 92%
    01:00 +12°C° 0.1 mm 2 mps 751 mmHg 92%
    02:00 +12°C° 0 mm 2 mps 751 mmHg 93%
    03:00 +12°C° 0 mm 2 mps 751 mmHg 93%
    04:00 +12°C° 0 mm 1 mps 751 mmHg 94%
    05:00 +12°C° 0.4 mm 1 mps 751 mmHg 94%
    06:00 +13°C° 0.4 mm 1 mps 751 mmHg 95%
    07:00 +12°C° 0.4 mm 0 mps 751 mmHg 95%
    08:00 +13°C° 0.3 mm 1 mps 751 mmHg 95%
    09:00 +13°C° 0.3 mm 1 mps 751 mmHg 94%
    10:00 +14°C° 0.3 mm 1 mps 752 mmHg 93%
    11:00 +14°C° 0.2 mm 1 mps 752 mmHg 93%
    12:00 +14°C° 0.2 mm 1 mps 752 mmHg 93%
    13:00 +14°C° 0.2 mm 1 mps 752 mmHg 93%
    14:00 +14°C° 0.7 mm 1 mps 752 mmHg 94%
    15:00 +14°C° 0.7 mm 1 mps 752 mmHg 94%
    16:00 +14°C° 0.7 mm 1 mps 752 mmHg 95%
    17:00 +14°C° 0.2 mm 1 mps 752 mmHg 95%
    18:00 +14°C° 0.2 mm 1 mps 752 mmHg 95%
    19:00 +14°C° 0.2 mm 1 mps 753 mmHg 95%
    20:00 +14°C° 0.1 mm 1 mps 753 mmHg 95%
    21:00 +14°C° 0.1 mm 1 mps 753 mmHg 95%
    22:00 +13°C° 0.1 mm 0 mps 753 mmHg 95%
    23:00 +14°C° 0.1 mm 1 mps 754 mmHg 95%

    Tomorrow, 21 October, Monday

    Time Temperature Precipitation Wind Pressure Humidity
    00:00 +14°C° 0.1 mm 1 mps 754 mmHg 95%
    01:00 +14°C° 0.1 mm 1 mps 754 mmHg 95%
    02:00 +14°C° 0 mm 1 mps 754 mmHg 95%
    03:00 +13°C° 0 mm 1 mps 754 mmHg 94%
    04:00 +13°C° 0 mm 1 mps 753 mmHg 94%
    05:00 +13°C° 0 mm 2 mps 754 mmHg 94%
    06:00 +13°C° 0 mm 2 mps 754 mmHg 94%
    07:00 +13°C° 0 mm 2 mps 754 mmHg 94%
    08:00 +14°C° 0 mm 2 mps 755 mmHg 90%
    09:00 +14°C° 0 mm 3 mps 755 mmHg 86%
    10:00 +16°C° 0 mm 3 mps 755 mmHg 82%
    11:00 +16°C° 0 mm 3 mps 756 mmHg 84%
    12:00 +16°C° 0 mm 3 mps 757 mmHg 86%
    13:00 +16°C° 0 mm 3 mps 757 mmHg 88%
    14:00 +16°C° 0 mm 3 mps 757 mmHg 86%
    15:00 +16°C° 0 mm 3 mps 757 mmHg 84%
    16:00 +16°C° 0 mm 2 mps 757 mmHg 83%
    17:00 +16°C° 0 mm 2 mps 758 mmHg 85%
    18:00 +15°C° 0 mm 2 mps 758 mmHg 87%
    19:00 +14°C° 0 mm 2 mps 759 mmHg 89%
    20:00 +13°C° 0 mm 3 mps 759 mmHg 89%
    21:00 +13°C° 0 mm 3 mps 760 mmHg 88%
    22:00 +13°C° 0 mm 3 mps 760 mmHg 88%
    23:00 +13°C° 0.1 mm 3 mps 761 mmHg 88%

    Day after tomorrow, 22 October, Tuesday

    Time Temperature Precipitation Wind Pressure Humidity
    00:00 +12°C° 0.1 mm 3 mps 761 mmHg 89%
    01:00 +12°C° 0.1 mm 3 mps 761 mmHg 89%
    02:00 +12°C° 0 mm 3 mps 761 mmHg 89%
    03:00 +12°C° 0 mm 3 mps 760 mmHg 88%
    04:00 +11°C° 0 mm 3 mps 760 mmHg 88%
    05:00 +11°C° 0 mm 3 mps 761 mmHg 87%
    06:00 +11°C° 0 mm 3 mps 761 mmHg 87%
    07:00 +11°C° 0 mm 3 mps 761 mmHg 87%
    08:00 +11°C° 0 mm 4 mps 761 mmHg 84%
    09:00 +12°C° 0 mm 4 mps 761 mmHg 81%
    10:00 +13°C° 0 mm 5 mps 761 mmHg 78%
    11:00 +13°C° 0 mm 5 mps 761 mmHg 76%
    12:00 +14°C° 0 mm 5 mps 761 mmHg 74%
    13:00 +14°C° 0 mm 5 mps 761 mmHg 72%
    14:00 +14°C° 0 mm 5 mps 761 mmHg 73%
    15:00 +14°C° 0 mm 4 mps 761 mmHg 74%
    16:00 +14°C° 0 mm 3 mps 761 mmHg 75%
    17:00 +13°C° 0 mm 3 mps 761 mmHg 79%
    18:00 +13°C° 0 mm 2 mps 761 mmHg 84%
    19:00 +12°C° 0 mm 2 mps 762 mmHg 88%
    20:00 +12°C° 0 mm 2 mps 762 mmHg 89%
    21:00 +11°C° 0 mm 1 mps 762 mmHg 91%
    22:00 +10°C° 0 mm 1 mps 762 mmHg 93%
    23:00 +10°C° 0 mm 1 mps 762 mmHg 93%

    23 October, Wednesday

    Time Temperature Precipitation Wind Pressure Humidity
    00:00 +10°C° 0 mm 1 mps 762 mmHg 94%
    01:00 +8°C° 0 mm 0 mps 762 mmHg 94%
    02:00 +8°C° 0 mm 0 mps 762 mmHg 94%
    03:00 +8°C° 0 mm 0 mps 761 mmHg 94%
    04:00 +7°C° 0 mm 0 mps 761 mmHg 94%
    05:00 +7°C° 0 mm 0 mps 761 mmHg 94%
    06:00 +7°C° 0 mm 0 mps 761 mmHg 95%
    07:00 +7°C° 0 mm 0 mps 761 mmHg 95%
    08:00 +9°C° 0 mm 1 mps 760 mmHg 90%
    09:00 +11°C° 0 mm 1 mps 760 mmHg 85%
    10:00 +12°C° 0 mm 1 mps 760 mmHg 81%
    11:00 +13°C° 0 mm 1 mps 760 mmHg 75%
    12:00 +14°C° 0 mm 1 mps 759 mmHg 70%
    13:00 +16°C° 0 mm 2 mps 759 mmHg 65%
    14:00 +15°C° 0 mm 2 mps 759 mmHg 67%
    15:00 +15°C° 0 mm 2 mps 758 mmHg 69%
    16:00 +15°C° 0 mm 1 mps 757 mmHg 72%
    17:00 +14°C° 0 mm 2 mps 757 mmHg 76%
    18:00 +13°C° 0 mm 2 mps 757 mmHg 81%
    19:00 +10°C° 0 mm 2 mps 757 mmHg 86%
    20:00 +10°C° 0 mm 2 mps 757 mmHg 88%
    21:00 +10°C° 0 mm 2 mps 757 mmHg 89%
    22:00 +10°C° 0 mm 2 mps 756 mmHg 91%
    23:00 +10°C° 0 mm 2 mps 756 mmHg 91%

    24 October, Thursday

    Time Temperature Precipitation Wind Pressure Humidity
    00:00 +10°C° 0 mm 2 mps 756 mmHg 92%
    01:00 +10°C° 0 mm 2 mps 755 mmHg 92%
    02:00 +10°C° 0 mm 2 mps 755 mmHg 92%
    03:00 +10°C° 0 mm 2 mps 755 mmHg 92%
    04:00 +10°C° 0 mm 2 mps 754 mmHg 92%
    05:00 +10°C° 0 mm 2 mps 754 mmHg 92%
    06:00 +10°C° 0 mm 2 mps 754 mmHg 92%
    07:00 +10°C° 0 mm 2 mps 754 mmHg 92%
    08:00 +12°C° 0 mm 2 mps 754 mmHg 87%
    09:00 +14°C° 0 mm 2 mps 754 mmHg 83%
    10:00 +15°C° 0 mm 2 mps 754 mmHg 78%
    11:00 +17°C° 0 mm 2 mps 754 mmHg 74%
    12:00 +18°C° 0 mm 2 mps 753 mmHg 70%
    13:00 +19°C° 0 mm 2 mps 753 mmHg 67%
    14:00 +19°C° 0 mm 2 mps 753 mmHg 70%
    15:00 +20°C° 0 mm 1 mps 753 mmHg 73%
    16:00 +19°C° 0 mm 1 mps 752 mmHg 76%
    17:00 +18°C° 0 mm 1 mps 753 mmHg 80%
    18:00 +16°C° 0 mm 1 mps 753 mmHg 83%
    19:00 +15°C° 0 mm 1 mps 753 mmHg 87%
    20:00 +15°C° 0 mm 2 mps 753 mmHg 88%
    21:00 +14°C° 0 mm 2 mps 753 mmHg 89%
    22:00 +14°C° 0 mm 2 mps 753 mmHg 91%
    23:00 +14°C° 0 mm 2 mps 753 mmHg 92%

    25 October, Friday

    Time Temperature Precipitation Wind Pressure Humidity
    00:00 +13°C° 0 mm 2 mps 753 mmHg 93%
    01:00 +13°C° 0 mm 2 mps 754 mmHg 94%
    02:00 +13°C° 0 mm 2 mps 754 mmHg 94%
    03:00 +13°C° 0 mm 2 mps 754 mmHg 95%
    04:00 +11°C° 0 mm 3 mps 755 mmHg 96%
    05:00 +11°C° 0 mm 3 mps 755 mmHg 96%
    06:00 +11°C° 0 mm 3 mps 755 mmHg 96%
    07:00 +11°C° 0 mm 3 mps 756 mmHg 96%
    08:00 +12°C° 0 mm 3 mps 756 mmHg 93%
    09:00 +13°C° 0 mm 3 mps 757 mmHg 89%
    10:00 +13°C° 0 mm 3 mps 757 mmHg 86%
    11:00 +14°C° 0 mm 3 mps 757 mmHg 81%
    12:00 +16°C° 0 mm 3 mps 757 mmHg 76%
    13:00 +17°C° 0 mm 3 mps 758 mmHg 71%
    14:00 +17°C° 0 mm 3 mps 758 mmHg 73%
    15:00 +17°C° 0 mm 2 mps 758 mmHg 76%
    16:00 +16°C° 0 mm 2 mps 758 mmHg 78%
    17:00 +15°C° 0 mm 2 mps 758 mmHg 81%
    18:00 +14°C° 0 mm 1 mps 759 mmHg 85%
    19:00 +13°C° 0 mm 1 mps 759 mmHg 89%
    20:00 +12°C° 0 mm 1 mps 759 mmHg 90%
    21:00 +11°C° 0 mm 0 mps 760 mmHg 90%
    22:00 +10°C° 0 mm 0 mps 760 mmHg 91%
    23:00 +10°C° 0 mm 0 mps 760 mmHg 91%
    Show more